GW5660 Weather Reports


time (UTC)temp
F
wind
direction
speed
knots
gust
knots
rain 1hr
in
rain 24hr
in
rain mn
in
humidity
%
barometer
mb
20260508004022 59 60 3.5 5.2 0.00 0.02 0.00 76 1012.1
20260508003031 58 80 2.6 5.2 0.00 0.02 0.00 75 1012.2
20260508002022 59 87 3.5 6.1 0.00 0.02 0.00 75 1012.2
20260508001031 59 83 3.5 6.1 0.00 0.02 0.00 75 1012.5
20260508000022 59 82 3.5 6.1 0.00 0.02 0.00 74 1012.6
20260507235030 59 78 4.3 7.8 0.00 0.02 0.00 74 1012.7
20260507234022 59 72 4.3 7.0 0.00 0.02 0.00 73 1012.9
20260507233031 59 70 4.3 8.7 0.00 0.02 0.00 73 1013.2
20260507232042 59 65 3.5 6.1 0.00 0.02 0.00 72 1013.2
20260507231030 59 63 3.5 7.0 0.00 0.02 0.00 72 1013.5
20260507230022 59 68 3.5 6.1 0.00 0.02 0.00 71 1013.5
20260507225031 60 69 3.5 7.0 0.00 0.02 0.00 70 1013.8
20260507224022 59 61 3.5 6.1 0.00 0.02 0.00 70 1013.8
20260507223032 59 66 3.5 7.0 0.00 0.02 0.00 70 1013.9
20260507222022 59 72 2.6 5.2 0.00 0.02 0.00 70 1013.8
20260507221031 59 69 2.6 6.1 0.00 0.02 0.00 70 1013.8
20260507220021 59 81 3.5 6.1 0.00 0.02 0.00 69 1013.9
20260507215030 60 70 3.5 7.0 0.00 0.02 0.02 68 1013.8
20260507214022 60 75 3.5 6.1 0.00 0.02 0.02 67 1013.8
20260507213031 60 72 4.3 7.0 0.00 0.02 0.02 65 1013.9
20260507212022 60 65 3.5 7.0 0.00 0.02 0.02 65 1013.8
20260507211031 60 73 3.5 7.8 0.00 0.02 0.02 64 1013.9
20260507210023 60 73 3.5 6.1 0.00 0.02 0.02 66 1014.0
20260507205051 60 77 3.5 5.2 0.00 0.02 0.02 65 1014.0
20260507204023 59 84 2.6 5.2 0.00 0.02 0.02 64 1014.0
20260507203031 60 84 3.5 5.2 0.00 0.02 0.02 62 1014.2
20260507202023 60 82 3.5 6.1 0.00 0.02 0.02 60 1014.3
20260507201031 61 85 3.5 6.1 0.00 0.02 0.02 58 1014.3
20260507200022 61 80 3.5 5.2 0.00 0.02 0.02 58 1014.5
20260507195031 62 79 3.5 5.2 0.00 0.02 0.02 60 1014.2
20260507194022 62 66 3.5 5.2 0.00 0.02 0.02 63 1014.4
20260507193051 62 66 1.7 2.6 0.00 0.02 0.02 64 1014.5
20260507192022 62 81 2.6 3.5 0.00 0.02 0.02 63 1014.3
20260507191031 63 86 4.3 7.0 0.00 0.02 0.02 61 1014.3
20260507190022 62 63 2.6 3.5 0.00 0.02 0.02 66 1014.3
20260507185030 62 86 1.7 2.6 0.00 0.02 0.02 67 1014.4
20260507184022 62 100 0.9 1.7 0.00 0.02 0.02 66 1014.4
20260507183111 62 0.0 1.7 0.00 0.02 0.02 65 1014.5
20260507182020 63 117 1.7 2.6 0.00 0.02 0.02 64 1014.3
20260507181030 63 107 2.6 3.5 0.00 0.02 0.02 63 1014.2
20260507180040 63 136 3.5 7.0 0.00 0.02 0.02 62 1014.1
20260507175029 63 149 5.2 8.7 0.00 0.02 0.02 60 1014.3
20260507174020 63 151 4.3 7.0 0.00 0.02 0.02 61 1014.1
20260507173030 64 146 7.0 9.6 0.00 0.02 0.02 60 1014.2
20260507172020 64 148 6.1 9.6 0.00 0.02 0.02 59 1014.1
20260507171049 65 147 7.0 9.6 0.00 0.02 0.02 58 1014.3
20260507170020 65 149 7.8 11.3 0.00 0.02 0.02 57 1014.3
20260507165050 65 150 7.8 11.3 0.00 0.02 0.02 55 1014.3
20260507164040 66 150 6.1 9.6 0.00 0.02 0.02 54 1014.3
20260507163029 67 157 8.7 12.2 0.00 0.02 0.02 51 1014.3
20260507162020 67 151 9.6 14.8 0.00 0.02 0.02 50 1014.2
20260507161029 67 149 8.7 13.9 0.00 0.02 0.02 50 1014.2
20260507160021 67 151 8.7 13.9 0.00 0.02 0.02 51 1014.2
20260507155029 67 147 8.7 12.2 0.00 0.02 0.02 52 1014.2
20260507154020 67 148 9.6 13.0 0.00 0.02 0.02 51 1014.4
20260507153029 68 146 9.6 13.9 0.00 0.02 0.02 51 1014.4
20260507152020 68 161 10.4 13.9 0.00 0.02 0.02 52 1014.5
20260507151028 68 150 9.6 14.8 0.00 0.02 0.02 50 1014.8
20260507150020 68 162 9.6 14.8 0.00 0.02 0.02 51 1014.8
20260507145049 68 167 10.4 14.8 0.00 0.02 0.02 51 1014.8
20260507144020 67 165 9.6 13.9 0.00 0.02 0.02 53 1014.9
20260507143030 68 162 9.6 14.8 0.00 0.02 0.02 50 1014.8
20260507142040 68 164 10.4 14.8 0.00 0.02 0.02 48 1015.1
20260507141029 69 166 10.4 14.8 0.00 0.02 0.02 44 1015.0
20260507140020 69 166 11.3 16.5 0.00 0.02 0.02 40 1014.9
20260507135030 69 170 11.3 14.8 0.00 0.02 0.02 42 1015.1
20260507134020 70 172 11.3 19.1 0.00 0.02 0.02 43 1015.2
20260507133029 69 177 11.3 18.2 0.00 0.02 0.02 45 1015.1
20260507132042 69 185 11.3 20.0 0.00 0.02 0.02 46 1015.2
20260507131029 69 167 13.0 18.2 0.00 0.02 0.02 47 1015.3
20260507130024 69 184 11.3 16.5 0.00 0.02 0.02 48 1015.5
20260507125028 68 192 10.4 14.8 0.00 0.02 0.02 50 1015.5
20260507124020 68 196 13.0 16.5 0.00 0.02 0.02 48 1015.6
20260507123048 67 179 10.4 15.6 0.00 0.02 0.02 62 1015.5
20260507122020 66 180 9.6 15.6 0.00 0.02 0.02 68 1015.6
20260507121108 66 189 10.4 16.5 0.00 0.02 0.02 66 1015.8
20260507120020 66 181 12.2 16.5 0.00 0.02 0.02 71 1016.0
20260507115028 66 195 12.2 19.1 0.00 0.02 0.02 72 1016.0
20260507114020 65 176 10.4 15.6 0.00 0.02 0.02 73 1015.9
20260507113029 65 182 12.2 16.5 0.00 0.02 0.02 75 1015.8
20260507112020 65 196 12.2 20.0 0.00 0.02 0.02 74 1015.9
20260507111028 65 171 11.3 15.6 0.00 0.02 0.02 75 1015.9
20260507110020 65 196 11.3 16.5 0.00 0.02 0.02 74 1016.0
20260507105028 64 173 10.4 14.8 0.00 0.02 0.02 74 1015.9
20260507104020 64 168 13.0 18.2 0.00 0.02 0.02 74 1015.7
20260507103029 65 173 12.2 18.2 0.00 0.02 0.02 74 1016.1
20260507102020 65 160 10.4 14.8 0.00 0.02 0.02 77 1015.8
20260507101128 64 148 11.3 13.9 0.00 0.02 0.02 79 1015.9
20260507100020 64 164 12.2 15.6 0.00 0.02 0.02 78 1016.1
20260507095029 65 185 10.4 15.6 0.00 0.02 0.02 77 1016.5
20260507094020 65 156 9.6 14.8 0.00 0.02 0.02 75 1015.9
20260507093028 65 145 10.4 15.6 0.00 0.02 0.02 75 1015.6
20260507090020 66 124 13.0 18.2 0.00 0.02 0.02 76 1015.4
20260507085028 65 137 13.9 20.0 0.00 0.02 0.02 76 1015.6
20260507084020 64 135 12.2 20.0 0.00 0.02 0.02 81 1015.7
20260507083028 64 136 11.3 16.5 0.00 0.02 0.02 83 1015.9
20260507082020 63 144 8.7 13.9 0.00 0.02 0.02 84 1016.3
20260507081049 63 135 7.8 12.2 0.00 0.02 0.02 85 1016.4
20260507080020 63 114 11.3 15.6 0.00 0.02 0.02 86 1015.9
20260507075028 63 130 7.0 12.2 0.00 0.02 0.02 86 1016.6
20260507074020 63 137 6.1 9.6 0.00 0.02 0.02 87 1016.9
20260507073029 63 134 6.1 9.6 0.00 0.02 0.02 88 1017.1
20260507072020 63 141 7.8 11.3 0.00 0.02 0.02 88 1017.0
20260507071028 63 145 7.0 9.6 0.00 0.02 0.02 89 1017.3
20260507070020 63 155 6.1 9.6 0.00 0.02 0.02 89 1017.3
20260507065029 63 143 5.2 9.6 0.00 0.02 0.02 90 1017.2
20260507064020 62 132 4.3 7.0 0.00 0.02 0.02 91 1017.2
20260507063028 62 130 4.3 7.0 0.00 0.02 0.02 92 1017.0
20260507062100 62 99 5.2 7.8 0.00 0.02 0.02 92 1016.8
20260507061029 62 100 5.2 8.7 0.00 0.02 0.02 93 1016.4
20260507060020 61 106 6.1 9.6 0.00 0.02 0.02 93 1016.7
20260507055029 61 132 5.2 7.8 0.00 0.02 0.02 94 1016.9
20260507054020 61 138 3.5 6.1 0.00 0.02 0.02 94 1016.8
20260507053029 60 120 3.5 6.1 0.00 0.02 0.02 94 1016.8
20260507052020 60 107 4.3 8.7 0.00 0.02 0.02 94 1016.3
20260507051029 60 108 7.0 9.6 0.00 0.02 0.02 94 1015.9
20260507050020 60 97 7.0 9.6 0.00 0.02 0.02 94 1015.4
20260507045028 60 78 6.1 9.6 0.00 0.02 0.02 94 1015.5
20260507044020 60 94 6.1 7.8 0.00 0.02 0.02 94 1016.1
20260507043028 60 99 4.3 6.1 0.01 0.02 0.02 94 1016.3
20260507042020 60 104 1.7 5.2 0.01 0.02 0.02 94 1016.1
20260507041029 60 84 2.6 5.2 0.01 0.02 0.02 94 1015.9
20260507040020 60 88 3.5 7.0 0.01 0.02 0.02 94 1015.8
20260507035028 60 83 4.3 7.0 0.01 0.02 0.02 94 1015.6
20260507034020 60 82 3.5 7.0 0.01 0.02 0.02 94 1015.9
20260507033030 60 80 1.7 3.5 0.00 0.01 0.01 94 1016.1
20260507032021 60 92 1.7 2.6 0.00 0.01 0.01 94 1016.0
20260507031031 60 99 2.6 5.2 0.00 0.01 0.01 94 1015.9
20260507025030 61 97 4.3 7.0 0.00 0.01 0.01 94 1015.7
20260507024021 61 107 2.6 3.5 0.00 0.01 0.01 94 1015.6
20260507023030 61 96 4.3 6.1 0.01 0.01 0.01 93 1015.6
20260507022042 61 95 3.5 5.2 0.01 0.01 0.01 93 1015.5
20260507021031 61 100 4.3 6.1 0.01 0.01 0.01 93 1015.2
20260507020022 61 101 3.5 6.1 0.01 0.01 0.01 92 1015.2
20260507015050 61 95 3.5 5.2 0.01 0.01 0.01 92 1015.2
20260507014021 62 60 4.3 7.0 0.01 0.01 0.01 92 1015.1
20260507013031 62 111 1.7 3.5 0.00 0.00 0.00 92 1015.3
20260507012022 62 148 3.5 3.5 0.00 0.00 0.00 91 1015.4
20260507011031 62 114 2.6 5.2 0.00 0.00 0.00 91 1015.3
20260507010022 62 119 3.5 5.2 0.00 0.00 0.00 91 1015.3
20260507005030 62 132 4.3 8.7 0.00 0.00 0.00 91 1015.0